When you browse on this site, cookies collect data to enhance your experience and personalize the content and advertising you see.
Visit our Privacy Policy to learn more. By continuing to use the site, you agree to this use of cookies and data.
  • In Deutschland
  • Länderverzeichnis
  • Für 7 Tage
  • Wassertemperatur
  • Wetterkarte
  • Widgets
  • user-avatar
    Anmelden

    Stündliche Wetter Lüttich

    Heute, 31 Mai, Sonntag

    Zeit Temperatur Niederschläge Wind Luftdruck Luftfeuchtigkeit
    00:00 +12°C° 0 mm 2 m/S 757 mmHg 70%
    01:00 +10°C° 0 mm 2 m/S 757 mmHg 73%
    02:00 +10°C° 0 mm 2 m/S 757 mmHg 76%
    03:00 +10°C° 0 mm 1 m/S 757 mmHg 79%
    04:00 +10°C° 0 mm 2 m/S 757 mmHg 76%
    05:00 +13°C° 0 mm 2 m/S 757 mmHg 73%
    06:00 +14°C° 0 mm 2 m/S 757 mmHg 69%
    07:00 +16°C° 0 mm 3 m/S 757 mmHg 64%
    08:00 +17°C° 0 mm 4 m/S 757 mmHg 59%
    09:00 +18°C° 0 mm 4 m/S 757 mmHg 54%
    10:00 +19°C° 0 mm 4 m/S 757 mmHg 50%
    11:00 +19°C° 0 mm 5 m/S 757 mmHg 47%
    12:00 +20°C° 0 mm 4 m/S 756 mmHg 44%
    13:00 +20°C° 0 mm 4 m/S 756 mmHg 45%
    14:00 +21°C° 0 mm 4 m/S 756 mmHg 45%
    15:00 +21°C° 0 mm 4 m/S 756 mmHg 45%
    16:00 +20°C° 0 mm 4 m/S 756 mmHg 51%
    17:00 +19°C° 0 mm 4 m/S 756 mmHg 57%
    18:00 +19°C° 0 mm 4 m/S 756 mmHg 63%
    19:00 +17°C° 0 mm 3 m/S 756 mmHg 66%
    20:00 +14°C° 0 mm 3 m/S 756 mmHg 70%
    21:00 +13°C° 0 mm 3 m/S 756 mmHg 73%
    22:00 +12°C° 0 mm 3 m/S 757 mmHg 75%
    23:00 +12°C° 0 mm 3 m/S 757 mmHg 77%

    Morgen, 1 Juni, Montag

    Zeit Temperatur Niederschläge Wind Luftdruck Luftfeuchtigkeit
    00:00 +11°C° 0 mm 3 m/S 757 mmHg 78%
    01:00 +12°C° 0 mm 2 m/S 757 mmHg 81%
    02:00 +10°C° 0 mm 2 m/S 757 mmHg 84%
    03:00 +10°C° 0 mm 2 m/S 757 mmHg 87%
    04:00 +12°C° 0 mm 2 m/S 757 mmHg 83%
    05:00 +13°C° 0 mm 3 m/S 757 mmHg 79%
    06:00 +14°C° 0 mm 3 m/S 757 mmHg 75%
    07:00 +17°C° 0 mm 4 m/S 757 mmHg 70%
    08:00 +19°C° 0 mm 4 m/S 757 mmHg 65%
    09:00 +21°C° 0 mm 4 m/S 757 mmHg 61%
    10:00 +22°C° 0 mm 4 m/S 757 mmHg 57%
    11:00 +23°C° 0 mm 4 m/S 756 mmHg 54%
    12:00 +25°C° 0 mm 4 m/S 756 mmHg 50%
    13:00 +25°C° 0 mm 4 m/S 756 mmHg 49%
    14:00 +25°C° 0 mm 4 m/S 756 mmHg 48%
    15:00 +26°C° 0 mm 3 m/S 756 mmHg 47%
    16:00 +25°C° 0 mm 3 m/S 755 mmHg 53%
    17:00 +24°C° 0 mm 3 m/S 755 mmHg 58%
    18:00 +22°C° 0 mm 3 m/S 755 mmHg 63%
    19:00 +20°C° 0 mm 3 m/S 755 mmHg 68%
    20:00 +18°C° 0 mm 2 m/S 756 mmHg 73%
    21:00 +16°C° 0 mm 2 m/S 756 mmHg 78%
    22:00 +15°C° 0 mm 2 m/S 756 mmHg 78%
    23:00 +15°C° 0 mm 2 m/S 756 mmHg 78%

    übermorgen, 2 Juni, Dienstag

    Zeit Temperatur Niederschläge Wind Luftdruck Luftfeuchtigkeit
    00:00 +14°C° 0 mm 2 m/S 756 mmHg 78%
    01:00 +14°C° 0 mm 2 m/S 755 mmHg 81%
    02:00 +13°C° 0 mm 1 m/S 755 mmHg 83%
    03:00 +13°C° 0 mm 1 m/S 755 mmHg 86%
    04:00 +14°C° 0 mm 1 m/S 755 mmHg 82%
    05:00 +16°C° 0 mm 1 m/S 755 mmHg 78%
    06:00 +18°C° 0 mm 1 m/S 755 mmHg 74%
    07:00 +20°C° 0 mm 1 m/S 755 mmHg 68%
    08:00 +22°C° 0 mm 1 m/S 755 mmHg 61%
    09:00 +24°C° 0 mm 2 m/S 754 mmHg 55%
    10:00 +25°C° 0 mm 1 m/S 754 mmHg 52%
    11:00 +26°C° 0 mm 1 m/S 754 mmHg 50%
    12:00 +27°C° 0 mm 1 m/S 753 mmHg 47%
    13:00 +27°C° 0 mm 1 m/S 753 mmHg 47%
    14:00 +27°C° 0 mm 1 m/S 752 mmHg 47%
    15:00 +27°C° 0 mm 1 m/S 752 mmHg 47%
    16:00 +26°C° 0.1 mm 1 m/S 751 mmHg 54%
    17:00 +25°C° 0.1 mm 1 m/S 751 mmHg 60%
    18:00 +24°C° 0.1 mm 1 m/S 750 mmHg 66%
    19:00 +22°C° 0 mm 1 m/S 750 mmHg 70%
    20:00 +20°C° 0 mm 1 m/S 750 mmHg 73%
    21:00 +19°C° 0 mm 1 m/S 750 mmHg 76%
    22:00 +18°C° 0.2 mm 1 m/S 750 mmHg 79%
    23:00 +16°C° 0.2 mm 1 m/S 749 mmHg 83%

    3 Juni, Mittwoch

    Zeit Temperatur Niederschläge Wind Luftdruck Luftfeuchtigkeit
    00:00 +15°C° 0.2 mm 1 m/S 749 mmHg 86%
    01:00 +15°C° 0.2 mm 2 m/S 748 mmHg 87%
    02:00 +15°C° 0.2 mm 2 m/S 748 mmHg 88%
    03:00 +14°C° 0.2 mm 2 m/S 747 mmHg 88%
    04:00 +15°C° 0.3 mm 2 m/S 747 mmHg 88%
    05:00 +16°C° 0.3 mm 2 m/S 747 mmHg 87%
    06:00 +17°C° 0.3 mm 2 m/S 747 mmHg 86%
    07:00 +18°C° 0.4 mm 2 m/S 746 mmHg 82%
    08:00 +20°C° 0.4 mm 2 m/S 746 mmHg 77%
    09:00 +21°C° 0.4 mm 2 m/S 746 mmHg 73%
    10:00 +23°C° 0.7 mm 2 m/S 745 mmHg 68%
    11:00 +24°C° 0.7 mm 2 m/S 745 mmHg 64%
    12:00 +24°C° 0.7 mm 1 m/S 745 mmHg 59%
    13:00 +24°C° 0.4 mm 2 m/S 744 mmHg 59%
    14:00 +24°C° 0.4 mm 2 m/S 744 mmHg 59%
    15:00 +24°C° 0.4 mm 2 m/S 743 mmHg 59%
    16:00 +23°C° 0.1 mm 2 m/S 743 mmHg 63%
    17:00 +23°C° 0.1 mm 2 m/S 743 mmHg 67%
    18:00 +22°C° 0.1 mm 1 m/S 742 mmHg 71%
    19:00 +19°C° 0 mm 2 m/S 742 mmHg 77%
    20:00 +17°C° 0 mm 2 m/S 742 mmHg 82%
    21:00 +15°C° 0 mm 2 m/S 743 mmHg 87%
    22:00 +15°C° 0 mm 2 m/S 742 mmHg 89%
    23:00 +14°C° 0 mm 1 m/S 742 mmHg 91%

    4 Juni, Donnerstag

    Zeit Temperatur Niederschläge Wind Luftdruck Luftfeuchtigkeit
    00:00 +13°C° 0 mm 1 m/S 742 mmHg 94%
    01:00 +13°C° 0 mm 1 m/S 742 mmHg 95%
    02:00 +13°C° 0 mm 1 m/S 742 mmHg 96%
    03:00 +13°C° 0 mm 2 m/S 742 mmHg 97%
    04:00 +14°C° 0 mm 2 m/S 742 mmHg 95%
    05:00 +14°C° 0 mm 2 m/S 742 mmHg 93%
    06:00 +13°C° 0 mm 3 m/S 742 mmHg 91%
    07:00 +13°C° 0 mm 3 m/S 742 mmHg 89%
    08:00 +13°C° 0 mm 3 m/S 742 mmHg 88%
    09:00 +14°C° 0 mm 3 m/S 742 mmHg 86%
    10:00 +14°C° 0.1 mm 3 m/S 742 mmHg 85%
    11:00 +14°C° 0.1 mm 3 m/S 742 mmHg 85%
    12:00 +14°C° 0.1 mm 4 m/S 742 mmHg 84%
    13:00 +14°C° 0.1 mm 4 m/S 742 mmHg 79%
    14:00 +15°C° 0.1 mm 4 m/S 742 mmHg 74%
    15:00 +17°C° 0.1 mm 4 m/S 742 mmHg 69%
    16:00 +16°C° 0 mm 3 m/S 743 mmHg 68%
    17:00 +14°C° 0 mm 3 m/S 743 mmHg 66%
    18:00 +14°C° 0 mm 3 m/S 743 mmHg 65%
    19:00 +12°C° 0 mm 3 m/S 743 mmHg 69%
    20:00 +10°C° 0 mm 2 m/S 744 mmHg 73%
    21:00 +8°C° 0 mm 2 m/S 744 mmHg 76%
    22:00 +8°C° 0 mm 2 m/S 744 mmHg 77%
    23:00 +7°C° 0 mm 2 m/S 744 mmHg 78%

    5 Juni, Freitag

    Zeit Temperatur Niederschläge Wind Luftdruck Luftfeuchtigkeit
    00:00 +7°C° 0 mm 2 m/S 744 mmHg 79%
    01:00 +7°C° 0 mm 2 m/S 744 mmHg 78%
    02:00 +7°C° 0 mm 2 m/S 744 mmHg 77%
    03:00 +7°C° 0 mm 3 m/S 743 mmHg 75%
    04:00 +9°C° 0 mm 3 m/S 743 mmHg 73%
    05:00 +10°C° 0 mm 4 m/S 743 mmHg 71%
    06:00 +12°C° 0 mm 5 m/S 743 mmHg 69%
    07:00 +13°C° 0 mm 5 m/S 742 mmHg 67%
    08:00 +15°C° 0 mm 6 m/S 742 mmHg 65%
    09:00 +16°C° 0 mm 7 m/S 741 mmHg 62%
    10:00 +17°C° 0 mm 7 m/S 741 mmHg 59%
    11:00 +18°C° 0 mm 8 m/S 740 mmHg 55%
    12:00 +20°C° 0 mm 8 m/S 740 mmHg 52%
    13:00 +20°C° 0 mm 8 m/S 740 mmHg 54%
    14:00 +18°C° 0 mm 8 m/S 740 mmHg 56%
    15:00 +18°C° 0 mm 8 m/S 739 mmHg 57%
    16:00 +17°C° 0 mm 7 m/S 739 mmHg 61%
    17:00 +16°C° 0 mm 6 m/S 740 mmHg 65%
    18:00 +15°C° 0 mm 6 m/S 740 mmHg 69%
    19:00 +14°C° 0 mm 5 m/S 740 mmHg 74%
    20:00 +13°C° 0 mm 5 m/S 740 mmHg 78%
    21:00 +13°C° 0 mm 4 m/S 741 mmHg 82%
    22:00 +12°C° 0.2 mm 4 m/S 741 mmHg 86%
    23:00 +12°C° 0.2 mm 4 m/S 741 mmHg 89%
    Mehr zeigen